Погода в Тамбове

Поиск расширенной информации на нашем сайте:

Полезная информация:

Новости сайта



02.01.2020
Опубликован Долгосрочный прогноз погоды по городам России и ближнего зарубежья на январь 2020 года.
Карты: Прогноз на январь и февраль 2020 года, Сравнение прогнозируемой аномалии приземной температуры воздуха на январь 2020 года по разным моделям.




Погода в Тамбове - сегодня

Время (UTC), дата Ветер
(°,м/с) 
Видим.   Явления Облачность Т
(°С)
Тd
(°С)
f(%) Тe
(°С)
Pmin
(гПа)
dP
(гПа)
Po
(мм)
O2
(г/м3)
Тmin Tmax R s Состояние
почвы
06 30.11.20 120 (ЮВ) 6-11{12}  10 км  {снег}  10/10 270 м 
[St]
-1.1 -3 87 -5  1035.2  0.6  764  309  -1.2         
09 30.11.20 120 (ЮВ) 6-10{13}  10 км    10/10 360 м 
[Sc]
-1.4 -4 82 -5  1035.6  0.4  764  310           
12 30.11.20 120 (ЮВ) 6-10{13}  10 км    9/3 450 м верхняя 
[Sc|Ci sp]
-1 -5.3 73 -5  1035.1  -0.5  764  309           
15 30.11.20 130 (ЮВ) 4{10}  10 км    8/0 верхняя 
[Ci sp]
-1.7 -5.5 75 -4  1035.2  764  310    -0.2       
18 30.11.20 130 (ЮВ) 5{11}  10 км    8/0 верхняя 
[Ci sp]
-2.7 -6.4 76 -6  1035.5  0.3  764  312           
21 30.11.20 130 (ЮВ) 5{11}  10 км    6/0 верхняя 
[Ci fib]
-3.8 -7.5 75 -7  1036.1  0.4  764  313           
00 01.12.20 130 (ЮВ) 4{11}  10 км    4/0 верхняя 
[Ci fib]
-4.1 -8.7 70 -7  1035.8  -0.3  764  313           
03 01.12.20 130 (ЮВ) 5{10}  10 км    4/0 верхняя 
[Ci fib]
-4.9 -9.8 68 -9  1035.9  0.1  764  314  -5         
06 01.12.20 130 (ЮВ) 5{10}  10 км    8/0 средняя, верхняя 
[Ac trans|Ci sp]
-5.1 -10.5 66 -9  1036.3  0.4  764  315  -5.2         
09 01.12.20 140 (ЮВ) 5{12}  10 км    9/0 средняя, верхняя 
[Ac trans|Ci sp]
-2.1 -9.7 56 -5  1036.1  764  311           
12 01.12.20 120 (ЮВ) 10 км    9/0 средняя, верхняя 
[Ac trans|Ci sp]
-2 -9.1 58 -5  1036.1  764  311           
15 01.12.20 110 (В) 10 км    8/0 средняя, верхняя 
[Ac trans|Ci sp]
-4 -9.4 66 -8  1036.8  0.5  765  314    -1.1       
18 01.12.20 110 (В) 10 км    6/0 верхняя 
[Ci sp]
-6.9 -10.2 77 -10  1038  1.1  765  317           
21 01.12.20 110 (В) 10 км    6/0 верхняя 
[Ci sp]
-8.3 -11.1 80 -12  1038.8  0.7  766  319           
00 02.12.20 120 (ЮВ) н/о    н/о 
-9.1 -11.9 80 -11  1039.6  0.3  767  321           
03 02.12.20 120 (ЮВ) 10 км    6/0 верхняя 
[Ci sp]
-9.8 -12.4 81 -13  1039.3  0.1  766  321  -9.9         
06 02.12.20 110 (В) 10 км    9/0 верхняя 
[Ci fib]
-10.2 -12.9 81 -12  1039.5  0.3  766  322  -10.6         
09 02.12.20 100 (В) 10 км    9/0 верхняя 
[Ci fib]
-5.9 -11.6 64 -8  1039.2  -0.3  766  317           
12 02.12.20 090 (В) 10 км    8/0 верхняя 
[Ci fib]
-4.5 -11.1 60 -6  1038.6  -0.4  766  315           
15 02.12.20 090 (В) 10 км    3/0 верхняя 
[Ci fib]
-7.3 -11.6 71 -10  1038.7  766  318    -3.9       
18 02.12.20 110 (В) 10 км    ясно 
-9.5 -13 76 -12  1039.3  0.4  766  321           
21 02.12.20 110 (В) 10 км    ясно 
-11.7 -14.4 80 -14  1040.1  0.6  767  324           
00 03.12.20 110 (В) 10 км    ясно 
-12.6 -15.3 80 -15  1040.1  767  325           
03 03.12.20 110 (В) 10 км    3/0 верхняя 
[Ci fib]
-13.7 -16.4 80 -16  1039.8  -0.4  766  327  -13.8         
06 03.12.20 120 (ЮВ) 10 км    8/0 верхняя 
[Ci fib]
-13.3 -16 80 -15  1040.2  0.4  767  326  -14.2         
Время (UTC), дата Ветер
(°,м/с) 
Видим.   Явления Облачность Т
(°С)
Тd
(°С)
f(%) Тe
(°С)
Pmin
(гПа)
dP
(гПа)
Po
(мм)
O2
(г/м3)
Тmin Tmax R s Состояние
почвы

Для получения пояснительной информации подведите курсор к названию столбца.

ПОГОДА в Тамбове - архив

Всё, что Вы хотите узнать о погоде в Тамбове - удобно и подробно!

Выберите нужную дату (начиная с 1 января 2019* года) и нажмите кнопку "Найти".
Будут отображены архивные сводки погоды по пункту Тамбов, начиная с указанной даты.


Отображать данные в формате CSV (для использования в таблицах Excel)


Внимание! Наш архив погоды предназначен исключительно для личного некоммерческого использования в познавательных целях. Если Вам необходимы официальные справки о состоянии погоды (для производственных, юридических, коммерческих и т.п. целей), обращайтесь в органы Росгидромета.

*Примечание: данная дата относится к архиву по метеостанциям СССР (Россия, СНГ, Балтия).
Архив по метеостанциям Зарубежной Европы и Азии (кроме Китая) хранится 10 дней, по другим регионам земного шара (Китай, Африка, Америка, Австралия, Океания) - 1 день.

Тамбов - район местоположения метеостанции


Название, широта, долгота, высота метеостанции:
Тамбов 52.8°ш. 41.3°д. 128 м над ур. моря [Российская Федерация]

Дополнительная информация

В oтличие oт бoльшинства пoгoдных сайтoв мы публикуем пoдрoбную метеoинфoрмацию в детальнoм прoфессиoнальнoм фoрмате.

Характеристики температуры и влажнoсти вoздуха измеряются на высoте 2 м в тени вдали oт зданий и деревьев.
Скoрoсть ветра измеряется на высoте 10 м (на урoвне рoста челoвека скoрoсть ветра ниже в 1.5-2 раза). Если метеoстанция нахoдится в гoрoде или в лесу, тo скoрoсть ветра занижена на 2-4 м/с пo сравнению с oткрытым местoм. Скoрoсть ветра над акватoриями крупных рек и oзёр, а также на вершинах хoлмoв на 2-5 м/с выше, чем в oбычных услoвиях.
Атмoсфернoе давление в разных тoчках местнoсти мoжет значительнo oтличаться oт давления на метеoстанции, в зависимoсти oт услoвий рельефа (при пoдъёме на 10 м давление пoнижается примернo на 1 мм рт.ст.).